LNHGA EDOV-EKRK

Flight info

Callsign LNHGA
Flight time 1h 23m
Altitude 8000
Route SOGMA DCT NIKDA Q296 MONAK Z711 OLPIB M725 BISTA
Aircraft DA40/L-SDGRY/S

Departure

Time 2026-05-09 07:54
Airport Stendal-Borstel Airfield (EDOV)

Arrival

Time 2026-05-09 09:17
Airport Copenhagen Roskilde Airport (EKRK)
Time Latitude Longitude Altitude Speed Heading
2026-05-09 07:53 52.72813 11.92213 6596 ft 86 kts
2026-05-09 07:54 52.73406 11.92323 6813 ft 85 kts
2026-05-09 07:54 52.73997 11.92433 6992 ft 86 kts
2026-05-09 07:54 52.74591 11.92545 7157 ft 86 kts
2026-05-09 07:54 52.75188 11.92656 7328 ft 87 kts
2026-05-09 07:55 52.75789 11.92770 7508 ft 87 kts
2026-05-09 07:55 52.76384 11.92882 7696 ft 86 kts
2026-05-09 07:55 52.76980 11.92993 7880 ft 86 kts
2026-05-09 07:55 52.77587 11.93106 8010 ft 94 kts
2026-05-09 07:56 52.78307 11.93244 8014 ft 113 kts
2026-05-09 07:56 52.79127 11.93406 8016 ft 123 kts
2026-05-09 07:56 52.79999 11.93576 8017 ft 129 kts
2026-05-09 07:56 52.80899 11.93745 8017 ft 131 kts
2026-05-09 07:57 52.81816 11.93915 8015 ft 133 kts
2026-05-09 07:57 52.82741 11.94086 8015 ft 134 kts
2026-05-09 07:57 52.83670 11.94258 8015 ft 134 kts
2026-05-09 07:57 52.84602 11.94431 8016 ft 135 kts
2026-05-09 07:58 52.85535 11.94604 8017 ft 135 kts
2026-05-09 07:58 52.86462 11.94777 8017 ft 133 kts
2026-05-09 07:58 52.87378 11.94948 8017 ft 132 kts
2026-05-09 07:58 52.88286 11.95117 8017 ft 131 kts
2026-05-09 07:59 52.89194 11.95285 8015 ft 131 kts
2026-05-09 07:59 52.90098 11.95453 8016 ft 131 kts
2026-05-09 07:59 52.90994 11.95619 8017 ft 131 kts
2026-05-09 07:59 52.91906 11.95790 8017 ft 132 kts
2026-05-09 08:00 52.92817 11.95960 8016 ft 132 kts
2026-05-09 08:00 52.93725 11.96129 8015 ft 131 kts
2026-05-09 08:00 52.94633 11.96298 8017 ft 131 kts
2026-05-09 08:00 52.95535 11.96466 8018 ft 131 kts
2026-05-09 08:01 52.96439 11.96635 8019 ft 131 kts
2026-05-09 08:01 52.97348 11.96805 8020 ft 131 kts
2026-05-09 08:01 52.98258 11.96975 8019 ft 131 kts
2026-05-09 08:01 52.99167 11.97145 8018 ft 131 kts
2026-05-09 08:02 53.00072 11.97314 8019 ft 131 kts
2026-05-09 08:02 53.00977 11.97483 8018 ft 131 kts
2026-05-09 08:02 53.01879 11.97652 8019 ft 131 kts
2026-05-09 08:02 53.02783 11.97821 8018 ft 130 kts
2026-05-09 08:03 53.03684 11.97990 8019 ft 130 kts
2026-05-09 08:03 53.04586 11.98159 8018 ft 130 kts
2026-05-09 08:03 53.05488 11.98328 8019 ft 130 kts
2026-05-09 08:03 53.06380 11.98495 8019 ft 131 kts
2026-05-09 08:04 53.07285 11.98665 8019 ft 131 kts
2026-05-09 08:04 53.08190 11.98835 8019 ft 131 kts
2026-05-09 08:04 53.09096 11.99005 8019 ft 131 kts
2026-05-09 08:04 53.10000 11.99174 8018 ft 131 kts
2026-05-09 08:05 53.10905 11.99344 8018 ft 131 kts
2026-05-09 08:05 53.11809 11.99514 8019 ft 131 kts
2026-05-09 08:05 53.12715 11.99685 8019 ft 131 kts
2026-05-09 08:05 53.13621 11.99855 8018 ft 131 kts
2026-05-09 08:06 53.14220 11.99968 8018 ft 131 kts
2026-05-09 08:06 53.15122 12.00137 8018 ft 130 kts
2026-05-09 08:06 53.16023 12.00307 8018 ft 130 kts
2026-05-09 08:06 53.16922 12.00476 8018 ft 130 kts
2026-05-09 08:07 53.17822 12.00646 8019 ft 131 kts
2026-05-09 08:07 53.18726 12.00817 8019 ft 131 kts
2026-05-09 08:07 53.19631 12.00988 8018 ft 131 kts
2026-05-09 08:07 53.20534 12.01158 8019 ft 131 kts
2026-05-09 08:08 53.21439 12.01329 8015 ft 130 kts
2026-05-09 08:08 53.22340 12.01499 8016 ft 130 kts
2026-05-09 08:08 53.23241 12.01669 8015 ft 130 kts
2026-05-09 08:08 53.24142 12.01839 8015 ft 130 kts
2026-05-09 08:09 53.25042 12.02010 8017 ft 130 kts
2026-05-09 08:09 53.25939 12.02179 8018 ft 130 kts
2026-05-09 08:09 53.26842 12.02350 8018 ft 130 kts
2026-05-09 08:09 53.27743 12.02521 8018 ft 130 kts
2026-05-09 08:10 53.28631 12.02689 8018 ft 130 kts
2026-05-09 08:10 53.29532 12.02860 8017 ft 130 kts
2026-05-09 08:10 53.30434 12.03031 8017 ft 130 kts
2026-05-09 08:10 53.31334 12.03201 8018 ft 130 kts
2026-05-09 08:11 53.32235 12.03373 8017 ft 130 kts
2026-05-09 08:11 53.33134 12.03544 8017 ft 130 kts
2026-05-09 08:11 53.34032 12.03714 8017 ft 130 kts
2026-05-09 08:11 53.34931 12.03885 8017 ft 130 kts
2026-05-09 08:12 53.36733 12.04227 8014 ft 131 kts
2026-05-09 08:12 53.37634 12.04399 8014 ft 130 kts
2026-05-09 08:12 53.38537 12.04571 8017 ft 131 kts
2026-05-09 08:13 53.39445 12.04744 8014 ft 131 kts
2026-05-09 08:13 53.40349 12.04915 8018 ft 131 kts
2026-05-09 08:13 53.41252 12.05087 8014 ft 130 kts
2026-05-09 08:13 53.42152 12.05261 8017 ft 130 kts
2026-05-09 08:14 53.43054 12.05432 8013 ft 130 kts
2026-05-09 08:14 53.43952 12.05602 8022 ft 130 kts 10°
2026-05-09 08:14 53.44854 12.05774 8022 ft 132 kts
2026-05-09 08:14 53.45763 12.05947 8016 ft 131 kts
2026-05-09 08:15 53.46663 12.06119 8014 ft 131 kts 10°
2026-05-09 08:15 53.47565 12.06291 8018 ft 130 kts
2026-05-09 08:15 53.48465 12.06464 8016 ft 133 kts
2026-05-09 08:15 53.49376 12.06638 8015 ft 131 kts 10°
2026-05-09 08:16 53.50281 12.06812 8018 ft 131 kts
2026-05-09 08:16 53.51193 12.06987 8016 ft 132 kts
2026-05-09 08:16 53.52102 12.07161 8020 ft 131 kts
2026-05-09 08:16 53.53013 12.07335 8021 ft 132 kts
2026-05-09 08:17 53.53928 12.07511 8024 ft 132 kts 10°
2026-05-09 08:17 53.54841 12.07686 8023 ft 132 kts 10°
2026-05-09 08:17 53.55756 12.07862 8025 ft 133 kts 10°
2026-05-09 08:17 53.56676 12.08040 8025 ft 133 kts
2026-05-09 08:18 53.57599 12.08216 8022 ft 134 kts
2026-05-09 08:18 53.58521 12.08394 8020 ft 133 kts
2026-05-09 08:18 53.59432 12.08569 8023 ft 131 kts
2026-05-09 08:18 53.60359 12.08747 8025 ft 133 kts 10°
2026-05-09 08:19 53.61267 12.08921 8019 ft 133 kts 10°
2026-05-09 08:19 53.62196 12.09101 8024 ft 132 kts
2026-05-09 08:19 53.63098 12.09274 8019 ft 131 kts 10°
2026-05-09 08:19 53.64005 12.09449 8024 ft 132 kts 10°
2026-05-09 08:20 53.64922 12.09627 8027 ft 133 kts 11°
2026-05-09 08:20 53.65848 12.09806 8018 ft 133 kts 10°
2026-05-09 08:20 53.66760 12.09981 8021 ft 131 kts 10°
2026-05-09 08:20 53.67667 12.10158 8020 ft 131 kts
2026-05-09 08:21 53.68573 12.10337 8020 ft 132 kts 11°
2026-05-09 08:21 53.69482 12.10507 8018 ft 131 kts 10°
2026-05-09 08:21 53.70381 12.10677 8018 ft 130 kts 11°
2026-05-09 08:21 53.71283 12.10852 8021 ft 131 kts 10°
2026-05-09 08:22 53.72193 12.11029 8018 ft 132 kts 10°
2026-05-09 08:22 53.73105 12.11205 8018 ft 132 kts 10°
2026-05-09 08:22 53.74020 12.11380 8019 ft 132 kts 11°
2026-05-09 08:22 53.74932 12.11557 8018 ft 132 kts 10°
2026-05-09 08:23 53.75831 12.11729 8021 ft 132 kts 10°
2026-05-09 08:23 53.76754 12.11906 8023 ft 131 kts 10°
2026-05-09 08:23 53.77657 12.12082 8023 ft 133 kts 10°
2026-05-09 08:23 53.78581 12.12262 8020 ft 134 kts 10°
2026-05-09 08:24 53.79500 12.12439 8018 ft 132 kts 10°
2026-05-09 08:24 53.80408 12.12613 8026 ft 131 kts 11°
2026-05-09 08:24 53.81318 12.12788 8019 ft 131 kts 11°
2026-05-09 08:24 53.82221 12.12963 8018 ft 130 kts 10°
2026-05-09 08:25 53.83121 12.13137 8020 ft 130 kts
2026-05-09 08:25 53.84027 12.13311 8025 ft 133 kts 10°
2026-05-09 08:25 53.84944 12.13491 8023 ft 132 kts 10°
2026-05-09 08:25 53.85866 12.13673 8019 ft 133 kts 11°
2026-05-09 08:26 53.86779 12.13851 8017 ft 131 kts 10°
2026-05-09 08:26 53.87687 12.14026 8021 ft 132 kts 11°
2026-05-09 08:26 53.88601 12.14205 8016 ft 132 kts 10°
2026-05-09 08:26 53.89513 12.14383 8019 ft 132 kts 11°
2026-05-09 08:27 53.90413 12.14558 8019 ft 133 kts 10°
2026-05-09 08:27 53.91326 12.14737 8017 ft 131 kts 11°
2026-05-09 08:27 53.92232 12.14915 8019 ft 131 kts 11°
2026-05-09 08:27 53.93134 12.15090 8020 ft 131 kts 11°
2026-05-09 08:28 53.94046 12.15267 8024 ft 133 kts 10°
2026-05-09 08:28 53.94973 12.15451 8020 ft 134 kts 10°
2026-05-09 08:28 53.95899 12.15632 8023 ft 134 kts 10°
2026-05-09 08:28 53.96832 12.15815 8018 ft 135 kts 10°
2026-05-09 08:29 53.97756 12.15996 8023 ft 133 kts 10°
2026-05-09 08:29 53.98671 12.16183 8026 ft 133 kts 10°
2026-05-09 08:29 53.99588 12.16359 8027 ft 132 kts 10°
2026-05-09 08:29 54.00501 12.16535 8024 ft 132 kts 11°
2026-05-09 08:30 54.01415 12.16712 8021 ft 133 kts 10°
2026-05-09 08:30 54.02336 12.16893 8024 ft 133 kts 11°
2026-05-09 08:30 54.03261 12.17076 8018 ft 133 kts 10°
2026-05-09 08:30 54.04176 12.17254 8021 ft 132 kts 10°
2026-05-09 08:31 54.05085 12.17432 8023 ft 131 kts 10°
2026-05-09 08:31 54.05993 12.17610 8023 ft 131 kts 11°
2026-05-09 08:31 54.06898 12.17788 8027 ft 131 kts 10°
2026-05-09 08:31 54.07799 12.17967 8026 ft 132 kts 11°
2026-05-09 08:32 54.08711 12.18146 8018 ft 131 kts 10°
2026-05-09 08:32 54.09612 12.18322 8023 ft 131 kts 11°
2026-05-09 08:32 54.11435 12.18682 8023 ft 132 kts 11°
2026-05-09 08:33 54.12353 12.18864 8019 ft 132 kts 11°
2026-05-09 08:33 54.13263 12.19044 8021 ft 132 kts 11°
2026-05-09 08:33 54.14171 12.19224 8024 ft 131 kts 11°
2026-05-09 08:33 54.15082 12.19403 8022 ft 132 kts 10°
2026-05-09 08:34 54.15994 12.19584 8023 ft 132 kts 10°
2026-05-09 08:34 54.16907 12.19763 8026 ft 132 kts 11°
2026-05-09 08:34 54.17820 12.19943 8020 ft 132 kts 11°
2026-05-09 08:34 54.18736 12.20124 8022 ft 133 kts 11°
2026-05-09 08:35 54.19654 12.20305 8023 ft 132 kts 11°
2026-05-09 08:35 54.20565 12.20486 8024 ft 132 kts 11°
2026-05-09 08:35 54.21475 12.20667 8024 ft 131 kts 11°
2026-05-09 08:35 54.22382 12.20847 8024 ft 131 kts 11°
2026-05-09 08:36 54.23291 12.21027 8024 ft 131 kts 11°
2026-05-09 08:36 54.24198 12.21207 8026 ft 131 kts 11°
2026-05-09 08:36 54.25105 12.21388 8030 ft 131 kts 11°
2026-05-09 08:36 54.26017 12.21568 8026 ft 131 kts 10°
2026-05-09 08:37 54.26913 12.21746 8028 ft 131 kts 11°
2026-05-09 08:37 54.27823 12.21927 8028 ft 131 kts 11°
2026-05-09 08:37 54.28731 12.22107 8028 ft 131 kts 11°
2026-05-09 08:37 54.29639 12.22288 8027 ft 131 kts 11°
2026-05-09 08:38 54.30548 12.22468 8030 ft 131 kts 11°
2026-05-09 08:38 54.31455 12.22649 8030 ft 131 kts 10°
2026-05-09 08:38 54.32363 12.22830 8030 ft 131 kts 10°
2026-05-09 08:38 54.33267 12.23010 8030 ft 131 kts 11°
2026-05-09 08:39 54.34173 12.23190 8033 ft 131 kts 11°
2026-05-09 08:39 54.35078 12.23371 8032 ft 131 kts 11°
2026-05-09 08:39 54.35983 12.23551 8033 ft 131 kts 11°
2026-05-09 08:39 54.36888 12.23732 8033 ft 131 kts 11°
2026-05-09 08:40 54.37783 12.23911 8033 ft 131 kts 11°
2026-05-09 08:40 54.38699 12.24093 8027 ft 131 kts 12°
2026-05-09 08:40 54.39593 12.24271 8028 ft 131 kts 13°
2026-05-09 08:40 54.40500 12.24454 8028 ft 131 kts 11°
2026-05-09 08:41 54.41406 12.24633 8029 ft 131 kts 12°
2026-05-09 08:41 54.42313 12.24816 8030 ft 131 kts 11°
2026-05-09 08:41 54.43215 12.24996 8030 ft 131 kts 12°
2026-05-09 08:41 54.44123 12.25178 8033 ft 131 kts 12°
2026-05-09 08:42 54.45033 12.25361 8031 ft 132 kts 12°
2026-05-09 08:42 54.45943 12.25544 8031 ft 132 kts 10°
2026-05-09 08:42 54.46854 12.25727 8032 ft 132 kts 11°
2026-05-09 08:42 54.47762 12.25910 8031 ft 131 kts 11°
2026-05-09 08:43 54.48670 12.26091 8032 ft 131 kts 12°
2026-05-09 08:43 54.49577 12.26274 8031 ft 131 kts 13°
2026-05-09 08:43 54.50484 12.26456 8032 ft 131 kts 12°
2026-05-09 08:43 54.51389 12.26638 8031 ft 131 kts 11°
2026-05-09 08:44 54.52295 12.26820 8034 ft 131 kts 11°
2026-05-09 08:44 54.53201 12.27003 8035 ft 131 kts 11°
2026-05-09 08:44 54.54109 12.27185 8039 ft 131 kts 12°
2026-05-09 08:44 54.55018 12.27368 7988 ft 134 kts 11°
2026-05-09 08:45 54.55991 12.27572 7758 ft 144 kts 12°
2026-05-09 08:45 54.56988 12.27783 7530 ft 144 kts 11°
2026-05-09 08:45 54.57976 12.27987 7310 ft 145 kts 11°
2026-05-09 08:45 54.58980 12.28191 7087 ft 145 kts 11°
2026-05-09 08:46 54.59983 12.28393 6868 ft 145 kts 12°
2026-05-09 08:46 54.60992 12.28576 6638 ft 146 kts
2026-05-09 08:46 54.62005 12.28653 6406 ft 146 kts
2026-05-09 08:46 54.63017 12.28745 6170 ft 146 kts
2026-05-09 08:47 54.64030 12.28833 5939 ft 145 kts
2026-05-09 08:47 54.65044 12.28918 5700 ft 146 kts
2026-05-09 08:47 54.66059 12.29002 5468 ft 146 kts
2026-05-09 08:47 54.67070 12.29085 5240 ft 146 kts
2026-05-09 08:48 54.68085 12.29169 5011 ft 146 kts
2026-05-09 08:48 54.69097 12.29254 4772 ft 145 kts
2026-05-09 08:48 54.70104 12.29337 4536 ft 144 kts
2026-05-09 08:48 54.71106 12.29420 4301 ft 144 kts
2026-05-09 08:49 54.72100 12.29502 4069 ft 142 kts
2026-05-09 08:49 54.73089 12.29584 3838 ft 142 kts
2026-05-09 08:49 54.74072 12.29667 3605 ft 141 kts
2026-05-09 08:49 54.75054 12.29748 3375 ft 141 kts
2026-05-09 08:50 54.76014 12.29828 3150 ft 140 kts
2026-05-09 08:50 54.76979 12.29907 2972 ft 135 kts
2026-05-09 08:50 54.77874 12.29974 2976 ft 123 kts
2026-05-09 08:50 54.78711 12.30038 2974 ft 117 kts
2026-05-09 08:51 54.79524 12.30100 2971 ft 117 kts
2026-05-09 08:51 54.80341 12.30165 2972 ft 118 kts
2026-05-09 08:51 54.81163 12.30234 2973 ft 119 kts
2026-05-09 08:51 54.81722 12.30280 2972 ft 119 kts
2026-05-09 08:52 54.82816 12.30372 2975 ft 119 kts
2026-05-09 08:52 54.83375 12.30418 2976 ft 119 kts
2026-05-09 08:52 54.84192 12.30487 2976 ft 119 kts
2026-05-09 08:52 54.85024 12.30557 2979 ft 120 kts
2026-05-09 08:53 54.85859 12.30627 2976 ft 120 kts
2026-05-09 08:53 54.86695 12.30697 2977 ft 121 kts
2026-05-09 08:53 54.87535 12.30768 2977 ft 121 kts
2026-05-09 08:53 54.88374 12.30839 2978 ft 121 kts
2026-05-09 08:54 54.89213 12.30909 2978 ft 121 kts
2026-05-09 08:54 54.90047 12.30979 2972 ft 120 kts
2026-05-09 08:54 54.90883 12.31048 2972 ft 120 kts
2026-05-09 08:54 54.91720 12.31119 2973 ft 121 kts
2026-05-09 08:55 54.92554 12.31189 2969 ft 120 kts
2026-05-09 08:55 54.93386 12.31259 2969 ft 120 kts
2026-05-09 08:55 54.94217 12.31336 2969 ft 119 kts 12°
2026-05-09 08:55 54.94967 12.31833 2970 ft 114 kts 37°
2026-05-09 08:56 54.95628 12.32600 2975 ft 114 kts 39°
2026-05-09 08:56 54.96297 12.33391 2979 ft 118 kts 38°
2026-05-09 08:56 54.96976 12.34202 2965 ft 119 kts 40°
2026-05-09 08:56 54.97655 12.35007 2970 ft 117 kts 39°
2026-05-09 08:57 54.98335 12.35783 2979 ft 118 kts 38°
2026-05-09 08:57 54.99021 12.36588 2979 ft 120 kts 40°
2026-05-09 08:57 54.99777 12.37204 2974 ft 124 kts 18°
2026-05-09 08:57 55.00635 12.37123 2978 ft 126 kts 347°
2026-05-09 08:58 55.01413 12.36346 2974 ft 132 kts 328°
2026-05-09 08:58 55.02155 12.35397 2989 ft 132 kts 326°
2026-05-09 08:58 55.02904 12.34414 2958 ft 138 kts 326°
2026-05-09 08:58 55.03657 12.33456 2974 ft 132 kts 329°
2026-05-09 08:59 55.04397 12.32543 2974 ft 130 kts 328°
2026-05-09 08:59 55.05117 12.31644 2974 ft 128 kts 328°
2026-05-09 08:59 55.05838 12.30735 2979 ft 127 kts 327°
2026-05-09 08:59 55.06555 12.29829 2979 ft 127 kts 328°
2026-05-09 09:00 55.07269 12.28925 2979 ft 127 kts 327°
2026-05-09 09:00 55.07981 12.28022 2979 ft 126 kts 328°
2026-05-09 09:00 55.08694 12.27118 2978 ft 127 kts 327°
2026-05-09 09:00 55.09407 12.26214 2979 ft 127 kts 327°
2026-05-09 09:01 55.10122 12.25307 2979 ft 127 kts 327°
2026-05-09 09:01 55.10834 12.24404 2979 ft 127 kts 328°
2026-05-09 09:01 55.11547 12.23499 2979 ft 127 kts 328°
2026-05-09 09:01 55.12261 12.22592 2979 ft 127 kts 328°
2026-05-09 09:02 55.12976 12.21683 2979 ft 127 kts 327°
2026-05-09 09:02 55.13690 12.20776 2979 ft 127 kts 328°
2026-05-09 09:02 55.14406 12.19865 2979 ft 127 kts 327°
2026-05-09 09:02 55.15124 12.18951 2979 ft 128 kts 327°
2026-05-09 09:03 55.15840 12.18039 2979 ft 127 kts 327°
2026-05-09 09:03 55.16548 12.17139 2979 ft 127 kts 328°
2026-05-09 09:03 55.17274 12.16214 2983 ft 128 kts 327°
2026-05-09 09:03 55.17994 12.15295 2976 ft 128 kts 326°
2026-05-09 09:04 55.18706 12.14389 2975 ft 128 kts 327°
2026-05-09 09:04 55.19429 12.13465 2975 ft 129 kts 326°
2026-05-09 09:04 55.20174 12.12577 2983 ft 129 kts 337°
2026-05-09 09:04 55.21031 12.12275 2989 ft 125 kts
2026-05-09 09:05 55.21901 12.12260 2985 ft 125 kts
2026-05-09 09:05 55.22760 12.12254 2981 ft 122 kts
2026-05-09 09:05 55.23607 12.12239 2984 ft 122 kts
2026-05-09 09:05 55.24463 12.12223 2986 ft 124 kts
2026-05-09 09:06 55.25325 12.12204 2989 ft 125 kts
2026-05-09 09:06 55.26198 12.12197 2982 ft 125 kts
2026-05-09 09:06 55.27058 12.12182 2980 ft 124 kts
2026-05-09 09:06 55.27911 12.12162 2985 ft 122 kts
2026-05-09 09:07 55.28763 12.12139 2980 ft 122 kts
2026-05-09 09:07 55.29612 12.12123 2982 ft 122 kts
2026-05-09 09:07 55.30456 12.12109 2986 ft 122 kts
2026-05-09 09:07 55.31308 12.12096 2989 ft 124 kts
2026-05-09 09:08 55.32177 12.12083 2985 ft 125 kts
2026-05-09 09:08 55.33047 12.12066 2983 ft 125 kts
2026-05-09 09:08 55.33902 12.12050 2987 ft 123 kts
2026-05-09 09:08 55.34759 12.12034 2984 ft 123 kts
2026-05-09 09:09 55.35609 12.12018 2985 ft 124 kts
2026-05-09 09:09 55.36477 12.12003 2982 ft 125 kts
2026-05-09 09:09 55.37346 12.11985 2983 ft 124 kts
2026-05-09 09:09 55.38203 12.11973 2979 ft 123 kts
2026-05-09 09:10 55.39054 12.11954 2987 ft 122 kts
2026-05-09 09:10 55.39907 12.11937 2985 ft 124 kts
2026-05-09 09:10 55.40776 12.11915 2994 ft 126 kts
2026-05-09 09:10 55.41654 12.11900 2991 ft 125 kts
2026-05-09 09:11 55.42521 12.11884 2982 ft 122 kts
2026-05-09 09:11 55.43355 12.11866 2994 ft 119 kts
2026-05-09 09:11 55.44207 12.11842 2976 ft 123 kts
2026-05-09 09:11 55.45052 12.11824 2985 ft 122 kts
2026-05-09 09:12 55.45894 12.11805 2991 ft 121 kts
2026-05-09 09:12 55.46751 12.11800 2982 ft 125 kts
2026-05-09 09:12 55.47611 12.11788 2988 ft 124 kts
2026-05-09 09:12 55.48481 12.11777 2997 ft 125 kts
2026-05-09 09:13 55.49355 12.11758 3006 ft 127 kts
2026-05-09 09:13 55.50231 12.11739 3014 ft 126 kts
2026-05-09 09:13 55.51018 12.11104 3010 ft 131 kts 317°
2026-05-09 09:13 55.51382 12.09657 3014 ft 131 kts 272°
2026-05-09 09:14 55.51455 12.08058 3008 ft 132 kts 278°
2026-05-09 09:14 55.51930 12.06597 2682 ft 142 kts 323°
2026-05-09 09:14 55.52822 12.06071 2379 ft 131 kts 10°
2026-05-09 09:14 55.53546 12.06720 2074 ft 110 kts 56°
2026-05-09 09:15 55.53963 12.07790 1699 ft 108 kts 47°
2026-05-09 09:15 55.54511 12.08509 1590 ft 86 kts 40°
2026-05-09 09:15 55.54978 12.09114 1379 ft 81 kts 47°
2026-05-09 09:15 55.55450 12.09744 1297 ft 81 kts 37°
2026-05-09 09:16 55.55916 12.10263 1109 ft 79 kts 38°
2026-05-09 09:16 55.56880 12.11367 524 ft 84 kts 39°
2026-05-09 09:16 55.57380 12.11885 293 ft 80 kts 34°
2026-05-09 09:17 55.57843 12.12380 181 ft 76 kts 30°
2026-05-09 09:17 55.58204 12.12764 138 ft 45 kts 36°
2026-05-09 09:17 55.58359 12.12936 138 ft 20 kts 32°
2026-05-09 09:17 55.58457 12.12865 137 ft 17 kts 305°
2026-05-09 09:18 55.58523 12.12780 135 ft 13 kts 21°
2026-05-09 09:18 55.58587 12.12843 136 ft 0 kts 28°
2026-05-09 09:19 55.58610 12.12865 137 ft 3 kts 30°
2026-05-09 09:19 55.58720 12.12988 138 ft 23 kts 34°
2026-05-09 09:19 55.58857 12.13034 141 ft 20 kts 28°
2026-05-09 09:19 55.58945 12.12926 143 ft 23 kts 288°
2026-05-09 09:20 55.58974 12.12756 142 ft 7 kts 219°
2026-05-09 09:20 55.58966 12.12746 142 ft 0 kts 210°